• In Russia
  • List of Countries
  • For 7 days
  • Water Temperature
  • Satellite Maps
  • Weather Map
  • Weather Widgets
  • user-avatar
    Login

    Hourly Weather Dankon

    Today, 16 August, Thursday

    Time Temperature Precipitation Wind Pressure Humidity
    00:00 +22°C° 0.8 mm 0 mps 698 mmHg 93%
    01:00 +22°C° 0 mm 0 mps 698 mmHg 95%
    02:00 +22°C° 0.8 mm 0 mps 697 mmHg 96%
    03:00 +21°C° 0.8 mm 0 mps 697 mmHg 97%
    04:00 +21°C° 0.8 mm 0 mps 697 mmHg 98%
    05:00 +21°C° 0.5 mm 0 mps 697 mmHg 97%
    06:00 +22°C° 0.5 mm 0 mps 697 mmHg 96%
    07:00 +23°C° 0 mm 0 mps 697 mmHg 96%
    08:00 +23°C° 1.1 mm 0 mps 697 mmHg 96%
    09:00 +23°C° 1.1 mm 0 mps 697 mmHg 96%
    10:00 +24°C° 1.1 mm 0 mps 697 mmHg 97%
    11:00 +27°C° 0.8 mm 1 mps 697 mmHg 94%
    12:00 +27°C° 0.8 mm 1 mps 697 mmHg 92%
    13:00 +27°C° 0 mm 1 mps 697 mmHg 91%
    14:00 +27°C° 0.4 mm 1 mps 696 mmHg 89%
    15:00 +28°C° 0.4 mm 1 mps 696 mmHg 87%
    16:00 +28°C° 0.4 mm 1 mps 696 mmHg 85%
    17:00 +25°C° 0.5 mm 0 mps 696 mmHg 89%
    18:00 +24°C° 0.5 mm 0 mps 695 mmHg 93%
    19:00 +23°C° 0.5 mm 0 mps 695 mmHg 97%
    20:00 +23°C° 1 mm 0 mps 696 mmHg 98%
    21:00 +23°C° 1 mm 0 mps 696 mmHg 98%
    22:00 +22°C° 1 mm 0 mps 696 mmHg 99%
    23:00 +22°C° 0.9 mm 0 mps 696 mmHg 99%

    Tomorrow, 17 August, Friday

    Time Temperature Precipitation Wind Pressure Humidity
    00:00 +22°C° 0.9 mm 0 mps 695 mmHg 99%
    01:00 +22°C° 0.9 mm 0 mps 695 mmHg 99%
    02:00 +22°C° 0.7 mm 0 mps 694 mmHg 99%
    03:00 +22°C° 0.7 mm 0 mps 694 mmHg 99%
    04:00 +22°C° 0.7 mm 0 mps 693 mmHg 99%
    05:00 +22°C° 0.3 mm 0 mps 693 mmHg 99%
    06:00 +24°C° 0.3 mm 1 mps 693 mmHg 99%
    07:00 +24°C° 0.3 mm 1 mps 693 mmHg 99%
    08:00 +24°C° 1.5 mm 1 mps 693 mmHg 99%
    09:00 +25°C° 1.5 mm 1 mps 693 mmHg 99%
    10:00 +25°C° 1.5 mm 1 mps 693 mmHg 99%
    11:00 +25°C° 2.6 mm 1 mps 693 mmHg 99%
    12:00 +25°C° 2.6 mm 1 mps 693 mmHg 99%
    13:00 +25°C° 2.6 mm 1 mps 693 mmHg 99%
    14:00 +25°C° 0.4 mm 1 mps 693 mmHg 96%
    15:00 +26°C° 0.4 mm 1 mps 693 mmHg 93%
    16:00 +27°C° 0.4 mm 2 mps 693 mmHg 91%
    17:00 +26°C° 0.1 mm 1 mps 693 mmHg 92%
    18:00 +26°C° 0.1 mm 1 mps 693 mmHg 94%
    19:00 +25°C° 0.1 mm 1 mps 693 mmHg 95%
    20:00 +25°C° 0.1 mm 1 mps 694 mmHg 96%
    21:00 +24°C° 0.1 mm 1 mps 695 mmHg 97%
    22:00 +24°C° 0.1 mm 1 mps 695 mmHg 98%
    23:00 +24°C° 0 mm 1 mps 695 mmHg 98%

    Day after tomorrow, 18 August, Saturday

    Time Temperature Precipitation Wind Pressure Humidity
    00:00 +22°C° 0 mm 0 mps 695 mmHg 98%
    01:00 +22°C° 0 mm 0 mps 695 mmHg 98%
    02:00 +21°C° 0.1 mm 0 mps 695 mmHg 98%
    03:00 +21°C° 0.1 mm 0 mps 695 mmHg 98%
    04:00 +21°C° 0.1 mm 0 mps 695 mmHg 98%
    05:00 +22°C° 0 mm 0 mps 695 mmHg 98%
    06:00 +22°C° 0 mm 0 mps 696 mmHg 97%
    07:00 +22°C° 0 mm 0 mps 696 mmHg 97%
    08:00 +24°C° 0.2 mm 0 mps 696 mmHg 91%
    09:00 +25°C° 0.2 mm 0 mps 697 mmHg 84%
    10:00 +27°C° 0.2 mm 0 mps 697 mmHg 78%
    11:00 +27°C° 1.1 mm 0 mps 697 mmHg 81%
    12:00 +27°C° 1.1 mm 0 mps 697 mmHg 83%
    13:00 +27°C° 1.1 mm 0 mps 696 mmHg 86%
    14:00 +27°C° 1.8 mm 0 mps 695 mmHg 88%
    15:00 +26°C° 1.8 mm 0 mps 695 mmHg 91%
    16:00 +26°C° 1.8 mm 0 mps 694 mmHg 94%
    17:00 +25°C° 0.9 mm 0 mps 694 mmHg 95%
    18:00 +24°C° 0.9 mm 0 mps 695 mmHg 96%
    19:00 +23°C° 0.9 mm 0 mps 695 mmHg 97%
    20:00 +23°C° 0.3 mm 0 mps 696 mmHg 98%
    21:00 +22°C° 0.3 mm 0 mps 696 mmHg 98%
    22:00 +22°C° 0.3 mm 0 mps 697 mmHg 98%
    23:00 +22°C° 0.4 mm 0 mps 697 mmHg 98%

    19 August, Sunday

    Time Temperature Precipitation Wind Pressure Humidity
    00:00 +22°C° 0.4 mm 0 mps 697 mmHg 99%
    01:00 +22°C° 0.4 mm 0 mps 697 mmHg 99%
    02:00 +22°C° 0.1 mm 0 mps 697 mmHg 99%
    03:00 +21°C° 0.1 mm 0 mps 696 mmHg 99%
    04:00 +21°C° 0.1 mm 0 mps 696 mmHg 99%
    05:00 +22°C° 0 mm 0 mps 697 mmHg 98%
    06:00 +22°C° 0 mm 0 mps 697 mmHg 98%
    07:00 +22°C° 0 mm 0 mps 698 mmHg 98%
    08:00 +24°C° 0.3 mm 0 mps 698 mmHg 92%
    09:00 +25°C° 0.3 mm 0 mps 698 mmHg 86%
    10:00 +29°C° 0.3 mm 1 mps 699 mmHg 81%
    11:00 +30°C° 1 mm 1 mps 698 mmHg 80%
    12:00 +30°C° 1 mm 1 mps 698 mmHg 80%
    13:00 +31°C° 1 mm 1 mps 697 mmHg 80%
    14:00 +31°C° 1.4 mm 1 mps 697 mmHg 81%
    15:00 +30°C° 1.4 mm 1 mps 696 mmHg 82%
    16:00 +30°C° 1.4 mm 1 mps 695 mmHg 82%
    17:00 +29°C° 0.7 mm 1 mps 696 mmHg 86%
    18:00 +28°C° 0.7 mm 1 mps 696 mmHg 90%
    19:00 +24°C° 0.7 mm 0 mps 697 mmHg 94%
    20:00 +26°C° 0.7 mm 1 mps 697 mmHg 95%
    21:00 +25°C° 0.7 mm 1 mps 698 mmHg 96%
    22:00 +25°C° 0.7 mm 1 mps 699 mmHg 97%
    23:00 +25°C° 0.5 mm 1 mps 699 mmHg 97%

    20 August, Monday

    Time Temperature Precipitation Wind Pressure Humidity
    00:00 +24°C° 0.5 mm 1 mps 698 mmHg 98%
    01:00 +24°C° 0.5 mm 1 mps 698 mmHg 98%
    02:00 +22°C° 0.1 mm 0 mps 698 mmHg 98%
    03:00 +22°C° 0.1 mm 0 mps 698 mmHg 98%
    04:00 +22°C° 0.1 mm 0 mps 698 mmHg 98%
    05:00 +22°C° 0.1 mm 0 mps 698 mmHg 97%
    06:00 +22°C° 0.1 mm 0 mps 699 mmHg 97%
    07:00 +22°C° 0.1 mm 0 mps 699 mmHg 96%
    08:00 +24°C° 0.4 mm 0 mps 700 mmHg 93%
    09:00 +25°C° 0.4 mm 0 mps 700 mmHg 90%
    10:00 +26°C° 0.4 mm 0 mps 700 mmHg 87%
    11:00 +26°C° 0.8 mm 0 mps 700 mmHg 86%
    12:00 +29°C° 0.8 mm 1 mps 699 mmHg 86%
    13:00 +29°C° 0.8 mm 1 mps 699 mmHg 86%
    14:00 +29°C° 1 mm 1 mps 698 mmHg 85%
    15:00 +29°C° 1 mm 1 mps 697 mmHg 85%
    16:00 +27°C° 1 mm 0 mps 697 mmHg 84%
    17:00 +26°C° 0.2 mm 0 mps 697 mmHg 88%
    18:00 +25°C° 0.2 mm 0 mps 697 mmHg 91%
    19:00 +24°C° 0.2 mm 0 mps 698 mmHg 94%
    20:00 +24°C° 0 mm 0 mps 698 mmHg 95%
    21:00 +23°C° 0 mm 0 mps 698 mmHg 95%
    22:00 +23°C° 0 mm 0 mps 699 mmHg 96%
    23:00 +23°C° 0.3 mm 0 mps 699 mmHg 96%

    21 August, Tuesday

    Time Temperature Precipitation Wind Pressure Humidity
    00:00 +22°C° 0.3 mm 0 mps 698 mmHg 97%
    01:00 +22°C° 0.3 mm 0 mps 698 mmHg 98%
    02:00 +22°C° 0.2 mm 0 mps 698 mmHg 98%
    03:00 +22°C° 0.2 mm 0 mps 697 mmHg 98%
    04:00 +22°C° 0.2 mm 0 mps 697 mmHg 98%
    05:00 +22°C° 0 mm 0 mps 697 mmHg 98%
    06:00 +22°C° 0 mm 0 mps 698 mmHg 97%
    07:00 +22°C° 0 mm 0 mps 698 mmHg 96%
    08:00 +26°C° 0.3 mm 1 mps 698 mmHg 91%
    09:00 +28°C° 0.3 mm 1 mps 699 mmHg 85%
    10:00 +29°C° 0.3 mm 1 mps 699 mmHg 80%
    11:00 +29°C° 1 mm 1 mps 698 mmHg 82%
    12:00 +30°C° 1 mm 1 mps 697 mmHg 84%
    13:00 +30°C° 1 mm 1 mps 697 mmHg 86%
    14:00 +30°C° 1.3 mm 1 mps 696 mmHg 87%
    15:00 +29°C° 1.3 mm 1 mps 696 mmHg 88%
    16:00 +29°C° 1.3 mm 1 mps 695 mmHg 88%
    17:00 +28°C° 0.2 mm 1 mps 695 mmHg 90%
    18:00 +27°C° 0.2 mm 1 mps 696 mmHg 92%
    19:00 +26°C° 0.2 mm 1 mps 696 mmHg 94%
    20:00 +25°C° 0 mm 1 mps 696 mmHg 95%
    21:00 +25°C° 0 mm 1 mps 697 mmHg 96%
    22:00 +25°C° 0 mm 1 mps 697 mmHg 97%
    23:00 +22°C° 0 mm 0 mps 697 mmHg 97%
    Show more